Location: Beadle
(51.4667°N, 109.0000°W)
Time: 10:46:24
(UTC+00:00)

deb Explorer IX - Pass Details

Date: 04 June 2022
Orbit: 535 x 1068 km, 38.8° (Epoch: 04 July)

Event Time Altitude Azimuth Distance (km) Brightness Sun altitude
Rises 16:09:33 0° 236° (WSW) 3,811 ? 44.2°
Reaches altitude 10° 16:12:39 10° 225° (SW) 2,885 ? 44.7°
Maximum altitude 16:18:26 27° 171° (S) 1,910 ? 45.5°
Drops below altitude 10° 16:24:07 10° 117° (ESE) 2,838 ? 46.3°
Sets 16:27:08 0° 106° (ESE) 3,738 ? 46.7°
